Regional Weather Roundup
Issued by NWS

Home | Current Version | Previous Version | Graphics & Text | Print | Product List | Glossary On
Versions: 1 2 3 4 5 6 7 8 9 10 11 12 13 14 15 16 17 18 19 20 21 22 23 24 25 26 27 28 29 30 31 32 33 34 35 36 37 38 39 40 41 42 43 44 45 46 47 48 49 50
263
ASUS44 KLIX 021601
RWRLA
LOUISIANA WEATHER ROUNDUP
NATIONAL WEATHER SERVICE NEW ORLEANS LA
1100 AM CDT TUE SEP 02 2014

NOTE: "FAIR" INDICATES FEW OR NO CLOUDS BELOW 12,000 FEET WITH NO
      SIGNIFICANT WEATHER AND/OR OBSTRUCTIONS TO VISIBILITY.
      SKY/WX - SKY CONDITION AND SIGNIFICANT WEATHER.
      TMP - AIR TEMPERATURE.    DP   - DEWPOINT TEMPERATURE.
      RH  - RELATIVE HUMIDITY.  PRES - PRESSURE.
      HX  - HEAT INDEX.         WCI  - WIND CHILL INDEX.

*  THESE STATIONS ARE NOT NWS OR FAA STATIONS AND ARE NOT UNDER
   NWS QUALITY CONTROL.

LAZ040-048-061>063-065-066-069-021700-
SOUTHEAST LOUISIANA

CITY           SKY/WX    TMP DP  RH WIND       PRES   REMARKS
N.O. AUDUBON     N/A    N/A N/A N/A MISG        N/A
N.O. INTL ARPT PTSUNNY   89  74  60 S9        30.07R HX  98
N.O. LAKEFRONT MOSUNNY   87  75  67 SE6       30.08R HX  96
N.O. DOWNTOWN* CLOUDY    90  72  55 S5        30.08R HX  96
SLIDELL        PTSUNNY   86  76  71 S7        30.07S HX  96
BATON ROUGE    PTSUNNY   89  75  63 S7        30.07R HX  99
BOOTHVILLE     MOSUNNY   88  75  65 SE7       30.09R HX  97
BELLE CHASSE   PTSUNNY   89  74  60 VRB6      30.07R HX  98
BOGALUSA*      FAIR      86  76  71 SW3       30.10R HX  95
GALLIANO*      NOT AVBL
NEW ROADS*     FAIR      87  77  72 S7        30.06F HX  97
GONZALES*      PTSUNNY   88  78  72 SE7       30.06S HX 101
HAMMOND*       NOT AVBL
HOUMA*         MOSUNNY   90  72  55 SE12      30.07S HX  96
PORT FOURCHON* MOSUNNY   88  75  66 SE9       30.09S HX  97

$$

LAZ041-044-053-054-021700-
SOUTHWEST LOUISIANA

CITY           SKY/WX    TMP DP  RH WIND       PRES   REMARKS
LAKE CHARLES   SUNNY     88  76  67 S8        30.03R HX  99
LAFAYETTE      PTSUNNY   87  76  69 S10       30.05S HX  97
PATTERSON      PTSUNNY   90  77  66 S8        30.09S HX 102
SALT POINT       N/A     90  78  68 VRB6      30.06R HX 104
NEW IBERIA     LGT RAIN  82  76  81 SW5       30.06R
CHENAULT AIRPK MOSUNNY   90  73  58 S12       30.04R HX  98

$$

LAZ027-028-021700-
CENTRAL LOUISIANA

CITY           SKY/WX    TMP DP  RH WIND       PRES   REMARKS
FORT POLK      PTSUNNY   86  75  70 S13G18    30.04S HX  95
ALEXANDRIA INT MOSUNNY   86  75  69 S10       30.03S HX  95
ALEXANDRIA     MOSUNNY   89  77  67 S7        30.05S HX 101

$$

LAZ001-002-021700-
NORTHWEST LOUISIANA

CITY           SKY/WX    TMP DP  RH WIND       PRES   REMARKS
SHREVEPORT     MOSUNNY   89  73  59 VRB7      30.04R HX  97
BARKSDALE AFB  PTSUNNY   89  74  61 SW8       30.04R HX  99
DTN SHREVEPORT MOSUNNY   86  73  65 SW8       30.04R

$$

LAZ014-016-021700-
NORTHEAST LOUISIANA

CITY           SKY/WX    TMP DP  RH WIND       PRES   REMARKS
MONROE         PTSUNNY   87  76  69 W9G17     30.07R HX  97
TALLULAH       PTSUNNY   85  75  72 W6        30.07S

$$




USA.gov is the U.S. government's official web portal to all federal, state and local government web resources and services.